• In Hungary
  • List of Countries
  • For 7 days
  • Water Temperature
  • Satellite Maps
  • Weather Map
  • News
  • Weather Widgets
  • user-avatar
    Login

    Hourly Weather Frome

    Today, 17 October, Wednesday

    Time Temperature Precipitation Wind Pressure Humidity
    00:00 +11°C° 0 mm 3 mps 753 mmHg 93%
    01:00 +12°C° 0.1 mm 3 mps 753 mmHg 93%
    02:00 +12°C° 0.1 mm 3 mps 753 mmHg 94%
    03:00 +12°C° 0.1 mm 3 mps 753 mmHg 94%
    04:00 +12°C° 0.1 mm 3 mps 753 mmHg 94%
    05:00 +13°C° 0.1 mm 2 mps 753 mmHg 95%
    06:00 +13°C° 0 mm 2 mps 753 mmHg 95%
    07:00 +13°C° 0.2 mm 2 mps 753 mmHg 93%
    08:00 +14°C° 0.2 mm 2 mps 754 mmHg 91%
    09:00 +14°C° 0.2 mm 1 mps 754 mmHg 90%
    10:00 +14°C° 0.2 mm 1 mps 754 mmHg 87%
    11:00 +14°C° 0.2 mm 1 mps 754 mmHg 84%
    12:00 +15°C° 0.2 mm 1 mps 755 mmHg 81%
    13:00 +15°C° 0.1 mm 2 mps 755 mmHg 81%
    14:00 +15°C° 0.1 mm 2 mps 755 mmHg 81%
    15:00 +15°C° 0.1 mm 2 mps 755 mmHg 80%
    16:00 +14°C° 0 mm 2 mps 755 mmHg 82%
    17:00 +14°C° 0 mm 2 mps 756 mmHg 84%
    18:00 +13°C° 0 mm 2 mps 756 mmHg 86%
    19:00 +12°C° 0 mm 3 mps 757 mmHg 87%
    20:00 +11°C° 0 mm 3 mps 757 mmHg 88%
    21:00 +11°C° 0 mm 4 mps 758 mmHg 89%
    22:00 +11°C° 0 mm 4 mps 758 mmHg 89%
    23:00 +10°C° 0 mm 4 mps 758 mmHg 89%

    Tomorrow, 18 October, Thursday

    Time Temperature Precipitation Wind Pressure Humidity
    00:00 +9°C° 0 mm 5 mps 758 mmHg 90%
    01:00 +9°C° 0 mm 5 mps 758 mmHg 91%
    02:00 +8°C° 0 mm 5 mps 758 mmHg 91%
    03:00 +8°C° 0 mm 5 mps 759 mmHg 92%
    04:00 +8°C° 0 mm 4 mps 759 mmHg 93%
    05:00 +7°C° 0 mm 4 mps 759 mmHg 93%
    06:00 +7°C° 0 mm 4 mps 759 mmHg 94%
    07:00 +8°C° 0 mm 4 mps 759 mmHg 91%
    08:00 +10°C° 0 mm 4 mps 760 mmHg 89%
    09:00 +9°C° 0 mm 5 mps 760 mmHg 87%
    10:00 +12°C° 0 mm 5 mps 760 mmHg 82%
    11:00 +13°C° 0 mm 5 mps 760 mmHg 78%
    12:00 +14°C° 0 mm 5 mps 760 mmHg 73%
    13:00 +14°C° 0 mm 4 mps 759 mmHg 73%
    14:00 +14°C° 0 mm 4 mps 759 mmHg 72%
    15:00 +15°C° 0 mm 4 mps 759 mmHg 71%
    16:00 +13°C° 0 mm 4 mps 759 mmHg 75%
    17:00 +12°C° 0 mm 3 mps 759 mmHg 79%
    18:00 +11°C° 0 mm 3 mps 759 mmHg 83%
    19:00 +11°C° 0 mm 3 mps 759 mmHg 85%
    20:00 +10°C° 0 mm 3 mps 759 mmHg 86%
    21:00 +9°C° 0 mm 3 mps 759 mmHg 88%
    22:00 +9°C° 0 mm 2 mps 759 mmHg 89%
    23:00 +8°C° 0 mm 2 mps 759 mmHg 89%

    Day after tomorrow, 19 October, Friday

    Time Temperature Precipitation Wind Pressure Humidity
    00:00 +8°C° 0 mm 2 mps 759 mmHg 90%
    01:00 +8°C° 0 mm 2 mps 759 mmHg 91%
    02:00 +8°C° 0 mm 2 mps 759 mmHg 91%
    03:00 +7°C° 0 mm 2 mps 759 mmHg 92%
    04:00 +7°C° 0 mm 2 mps 759 mmHg 92%
    05:00 +7°C° 0 mm 2 mps 759 mmHg 92%
    06:00 +7°C° 0 mm 2 mps 759 mmHg 93%
    07:00 +8°C° 0 mm 2 mps 759 mmHg 89%
    08:00 +9°C° 0 mm 2 mps 759 mmHg 86%
    09:00 +11°C° 0 mm 1 mps 759 mmHg 83%
    10:00 +13°C° 0 mm 1 mps 760 mmHg 78%
    11:00 +14°C° 0 mm 1 mps 760 mmHg 73%
    12:00 +15°C° 0 mm 1 mps 760 mmHg 68%
    13:00 +16°C° 0 mm 1 mps 760 mmHg 67%
    14:00 +16°C° 0 mm 1 mps 760 mmHg 67%
    15:00 +16°C° 0 mm 1 mps 760 mmHg 66%
    16:00 +14°C° 0 mm 1 mps 760 mmHg 72%
    17:00 +13°C° 0 mm 1 mps 760 mmHg 78%
    18:00 +11°C° 0 mm 1 mps 760 mmHg 83%
    19:00 +11°C° 0 mm 1 mps 761 mmHg 85%
    20:00 +11°C° 0 mm 1 mps 761 mmHg 86%
    21:00 +10°C° 0 mm 1 mps 761 mmHg 87%
    22:00 +10°C° 0 mm 1 mps 761 mmHg 87%
    23:00 +10°C° 0 mm 1 mps 762 mmHg 88%

    20 October, Saturday

    Time Temperature Precipitation Wind Pressure Humidity
    00:00 +9°C° 0 mm 1 mps 762 mmHg 88%
    01:00 +9°C° 0 mm 1 mps 762 mmHg 88%
    02:00 +9°C° 0 mm 1 mps 762 mmHg 89%
    03:00 +8°C° 0 mm 2 mps 762 mmHg 90%
    04:00 +9°C° 0 mm 1 mps 762 mmHg 90%
    05:00 +8°C° 0 mm 1 mps 762 mmHg 90%
    06:00 +8°C° 0 mm 1 mps 762 mmHg 90%
    07:00 +10°C° 0 mm 1 mps 763 mmHg 87%
    08:00 +11°C° 0 mm 1 mps 763 mmHg 83%
    09:00 +12°C° 0 mm 1 mps 764 mmHg 80%
    10:00 +13°C° 0 mm 1 mps 764 mmHg 74%
    11:00 +15°C° 0 mm 1 mps 764 mmHg 69%
    12:00 +16°C° 0 mm 1 mps 764 mmHg 63%
    13:00 +18°C° 0 mm 1 mps 764 mmHg 63%
    14:00 +18°C° 0 mm 1 mps 763 mmHg 62%
    15:00 +18°C° 0 mm 1 mps 763 mmHg 61%
    16:00 +15°C° 0 mm 1 mps 763 mmHg 67%
    17:00 +14°C° 0 mm 1 mps 763 mmHg 74%
    18:00 +11°C° 0 mm 0 mps 763 mmHg 80%
    19:00 +11°C° 0 mm 1 mps 763 mmHg 82%
    20:00 +11°C° 0 mm 1 mps 763 mmHg 83%
    21:00 +11°C° 0 mm 1 mps 763 mmHg 84%
    22:00 +10°C° 0 mm 1 mps 763 mmHg 85%
    23:00 +10°C° 0 mm 1 mps 763 mmHg 86%

    21 October, Sunday

    Time Temperature Precipitation Wind Pressure Humidity
    00:00 +10°C° 0 mm 1 mps 763 mmHg 87%
    01:00 +9°C° 0 mm 1 mps 762 mmHg 87%
    02:00 +9°C° 0 mm 1 mps 762 mmHg 88%
    03:00 +9°C° 0 mm 1 mps 762 mmHg 89%
    04:00 +9°C° 0 mm 1 mps 762 mmHg 89%
    05:00 +9°C° 0 mm 1 mps 762 mmHg 89%
    06:00 +8°C° 0 mm 1 mps 762 mmHg 89%
    07:00 +10°C° 0 mm 1 mps 762 mmHg 86%
    08:00 +11°C° 0 mm 1 mps 762 mmHg 83%
    09:00 +12°C° 0 mm 1 mps 762 mmHg 79%
    10:00 +14°C° 0 mm 1 mps 762 mmHg 73%
    11:00 +15°C° 0 mm 1 mps 762 mmHg 66%
    12:00 +17°C° 0 mm 2 mps 762 mmHg 60%
    13:00 +17°C° 0 mm 2 mps 762 mmHg 61%
    14:00 +17°C° 0 mm 2 mps 761 mmHg 62%
    15:00 +17°C° 0 mm 2 mps 761 mmHg 63%
    16:00 +16°C° 0 mm 2 mps 761 mmHg 71%
    17:00 +14°C° 0 mm 2 mps 762 mmHg 79%
    18:00 +13°C° 0 mm 2 mps 762 mmHg 86%
    19:00 +12°C° 0 mm 4 mps 762 mmHg 86%
    20:00 +12°C° 0 mm 5 mps 763 mmHg 85%
    21:00 +11°C° 0 mm 6 mps 764 mmHg 84%
    22:00 +11°C° 0 mm 6 mps 764 mmHg 81%
    23:00 +10°C° 0 mm 6 mps 764 mmHg 77%

    22 October, Monday

    Time Temperature Precipitation Wind Pressure Humidity
    00:00 +10°C° 0 mm 7 mps 765 mmHg 73%
    01:00 +9°C° 0 mm 7 mps 765 mmHg 74%
    02:00 +9°C° 0 mm 6 mps 765 mmHg 75%
    03:00 +8°C° 0 mm 6 mps 766 mmHg 76%
    04:00 +8°C° 0 mm 6 mps 766 mmHg 79%
    05:00 +7°C° 0 mm 6 mps 766 mmHg 82%
    06:00 +5°C° 0 mm 6 mps 767 mmHg 85%
    07:00 +7°C° 0 mm 6 mps 767 mmHg 81%
    08:00 +7°C° 0 mm 6 mps 768 mmHg 78%
    09:00 +8°C° 0 mm 6 mps 768 mmHg 74%
    10:00 +9°C° 0 mm 6 mps 768 mmHg 69%
    11:00 +10°C° 0 mm 6 mps 769 mmHg 64%
    12:00 +11°C° 0 mm 6 mps 769 mmHg 60%
    13:00 +11°C° 0 mm 6 mps 769 mmHg 60%
    14:00 +11°C° 0 mm 6 mps 769 mmHg 60%
    15:00 +11°C° 0 mm 6 mps 768 mmHg 59%
    16:00 +9°C° 0 mm 5 mps 769 mmHg 64%
    17:00 +8°C° 0 mm 5 mps 769 mmHg 68%
    18:00 +7°C° 0 mm 4 mps 769 mmHg 73%
    19:00 +6°C° 0 mm 4 mps 769 mmHg 75%
    20:00 +6°C° 0 mm 4 mps 770 mmHg 77%
    21:00 +5°C° 0 mm 4 mps 770 mmHg 79%
    22:00 +5°C° 0 mm 4 mps 770 mmHg 83%
    23:00 +5°C° 0 mm 3 mps 769 mmHg 86%
    Show more